| time (UTC) | temp C | wind direction | speed KPH | gust KPH | rain 1hr cm | rain 24hr cm | rain mn cm | humidity % | barometer mb |
| 20260904211606 | 23 | 0 | 0.0 | 12.9 | 0.00 | 0.36 | 0.36 | 61 | 1011.5 |
| 20260904210123 | 24 | 215 | 1.6 | 19.3 | 0.00 | 0.36 | 0.36 | 59 | 1011.5 |
| 20260904204605 | 25 | 321 | 1.6 | 16.1 | 0.00 | 0.36 | 0.36 | 53 | 1011.6 |
| 20260904203105 | 25 | 265 | 8.0 | 19.3 | 0.00 | 0.36 | 0.36 | 54 | 1011.7 |
| 20260904201630 | 25 | 325 | 9.7 | 17.7 | 0.00 | 0.36 | 0.36 | 53 | 1011.7 |
| 20260904200121 | 25 | 314 | 1.6 | 24.1 | 0.00 | 0.36 | 0.36 | 57 | 1011.8 |
| 20260904194605 | 25 | 289 | 6.4 | 19.3 | 0.00 | 0.36 | 0.36 | 55 | 1011.9 |
| 20260904193113 | 25 | 309 | 3.2 | 12.9 | 0.00 | 0.36 | 0.36 | 54 | 1011.9 |
| 20260904191605 | 25 | 321 | 4.8 | 16.1 | 0.00 | 0.36 | 0.36 | 55 | 1011.9 |
| 20260904184609 | 25 | 38 | 4.8 | 19.3 | 0.00 | 0.36 | 0.36 | 54 | 1012.0 |
| 20260904183105 | 25 | 312 | 6.4 | 20.9 | 0.00 | 0.36 | 0.36 | 55 | 1012.1 |
| 20260904181603 | 25 | 300 | 6.4 | 17.7 | 0.00 | 0.36 | 0.36 | 56 | 1012.3 |
| 20260904180101 | 25 | 329 | 6.4 | 14.5 | 0.00 | 0.36 | 0.36 | 53 | 1012.4 |
| 20260904174604 | 25 | 277 | 3.2 | 20.9 | 0.00 | 0.36 | 0.36 | 54 | 1012.5 |
| 20260904173108 | 25 | 266 | 4.8 | 19.3 | 0.00 | 0.36 | 0.36 | 56 | 1012.3 |
| 20260904171623 | 25 | 264 | 9.7 | 29.0 | 0.00 | 0.36 | 0.36 | 59 | 1012.5 |
| 20260904170108 | 25 | 324 | 3.2 | 8.0 | 0.00 | 0.36 | 0.36 | 56 | 1012.4 |
| 20260904164604 | 25 | 289 | 6.4 | 25.7 | 0.00 | 0.36 | 0.36 | 58 | 1012.2 |
| 20260904163101 | 24 | 12 | 1.6 | 20.9 | 0.00 | 0.36 | 0.36 | 59 | 1012.7 |
| 20260904161611 | 23 | 288 | 3.2 | 19.3 | 0.00 | 0.36 | 0.36 | 60 | 1012.9 |
| 20260904160107 | 23 | 308 | 3.2 | 22.5 | 0.00 | 0.36 | 0.36 | 60 | 1013.1 |
| 20260904154605 | 23 | 311 | 6.4 | 22.5 | 0.00 | 0.36 | 0.36 | 60 | 1013.1 |
| 20260904153115 | 23 | 319 | 6.4 | 19.3 | 0.00 | 0.36 | 0.36 | 63 | 1013.2 |
| 20260904151559 | 23 | 338 | 4.8 | 14.5 | 0.00 | 0.36 | 0.36 | 61 | 1013.4 |
| 20260904150104 | 23 | 218 | 0.0 | 6.4 | 0.00 | 0.36 | 0.36 | 64 | 1013.2 |
| 20260904144615 | 23 | 295 | 1.6 | 9.7 | 0.00 | 0.36 | 0.36 | 64 | 1013.4 |
| 20260904143123 | 22 | 300 | 4.8 | 24.1 | 0.00 | 0.36 | 0.36 | 65 | 1013.4 |
| 20260904141604 | 22 | 283 | 9.7 | 14.5 | 0.00 | 0.36 | 0.36 | 67 | 1013.3 |
| 20260904140105 | 21 | 0 | 0.0 | 19.3 | 0.00 | 0.36 | 0.36 | 67 | 1013.4 |
| 20260904134606 | 22 | 298 | 3.2 | 20.9 | 0.00 | 0.36 | 0.36 | 66 | 1013.3 |
| 20260904133110 | 22 | 56 | 8.0 | 20.9 | 0.00 | 0.36 | 0.36 | 63 | 1013.2 |
| 20260904131605 | 21 | 222 | 1.6 | 8.0 | 0.00 | 0.36 | 0.36 | 100 | 1013.2 |
| 20260904130109 | 20 | 0 | 1.6 | 8.0 | 0.00 | 0.36 | 0.36 | 100 | 1013.3 |
| 20260904124602 | 20 | 222 | 3.2 | 6.4 | 0.00 | 0.36 | 0.36 | 100 | 1013.1 |
| 20260904123101 | 18 | 205 | 1.6 | 6.4 | 0.00 | 0.36 | 0.36 | 100 | 1013.0 |
| 20260904121603 | 18 | 228 | 0.0 | 4.8 | 0.00 | 0.36 | 0.36 | 100 | 1012.8 |
| 20260904120109 | 17 | 238 | 1.6 | 6.4 | 0.00 | 0.36 | 0.36 | 100 | 1012.7 |
| 20260904114608 | 17 | 263 | 0.0 | 6.4 | 0.00 | 0.36 | 0.36 | 100 | 1012.7 |
| 20260904113109 | 17 | 229 | 0.0 | 8.0 | 0.00 | 0.36 | 0.36 | 100 | 1012.5 |
| 20260904111604 | 16 | 0 | 0.0 | 3.2 | 0.00 | 0.36 | 0.36 | 100 | 1012.4 |
| 20260904110101 | 16 | 238 | 0.0 | 4.8 | 0.03 | 0.36 | 0.36 | 100 | 1012.2 |
| 20260904104604 | 15 | 0 | 0.0 | 3.2 | 0.03 | 0.36 | 0.36 | 100 | 1012.3 |
| 20260904103104 | 15 | 0 | 0.0 | 0.0 | 0.03 | 0.36 | 0.36 | 100 | 1012.3 |
| 20260904101607 | 15 | 0 | 0.0 | 0.0 | 0.03 | 0.36 | 0.36 | 100 | 1012.2 |
| 20260904100100 | 15 | 0 | 0.0 | 4.8 | 0.00 | 0.33 | 0.33 | 100 | 1012.1 |
| 20260904094604 | 15 | 0 | 0.0 | 0.0 | 0.00 | 0.33 | 0.33 | 100 | 1012.3 |
| 20260904093110 | 16 | 0 | 0.0 | 0.0 | 0.00 | 0.33 | 0.33 | 100 | 1012.3 |
| 20260904091605 | 16 | 0 | 0.0 | 0.0 | 0.00 | 0.33 | 0.33 | 100 | 1012.3 |
| 20260904084604 | 16 | 0 | 0.0 | 0.0 | 0.00 | 0.38 | 0.33 | 100 | 1012.0 |
| 20260904083106 | 16 | 0 | 0.0 | 0.0 | 0.00 | 0.38 | 0.33 | 100 | 1011.9 |
| 20260904081602 | 16 | 0 | 0.0 | 0.0 | 0.00 | 0.38 | 0.33 | 100 | 1011.7 |
| 20260904080119 | 17 | 0 | 0.0 | 0.0 | 0.00 | 0.38 | 0.33 | 100 | 1011.7 |
| 20260904074558 | 17 | 0 | 0.0 | 1.6 | 0.00 | 0.66 | 0.33 | 100 | 1011.4 |
| 20260904073113 | 17 | 0 | 0.0 | 0.0 | 0.00 | 0.66 | 0.33 | 100 | 1011.7 |
| 20260904071604 | 17 | 0 | 0.0 | 0.0 | 0.05 | 0.66 | 0.33 | 100 | 1011.9 |
| 20260904064558 | 17 | 0 | 0.0 | 1.6 | 0.28 | 0.66 | 0.33 | 100 | 1012.2 |
| 20260904063113 | 17 | 0 | 0.0 | 0.0 | 0.30 | 0.66 | 0.33 | 100 | 1012.4 |
| 20260904061604 | 17 | 0 | 0.0 | 0.0 | 0.28 | 0.61 | 0.28 | 100 | 1012.7 |
| 20260904060104 | 17 | 0 | 0.0 | 0.0 | 0.13 | 0.46 | 0.13 | 100 | 1012.9 |
| 20260904054600 | 17 | 0 | 0.0 | 0.0 | 0.05 | 0.48 | 0.05 | 100 | 1013.2 |
| 20260904053120 | 16 | 0 | 0.0 | 0.0 | 0.03 | 0.46 | 0.03 | 100 | 1012.9 |
| 20260904051604 | 16 | 0 | 0.0 | 0.0 | 0.00 | 0.43 | 0.00 | 100 | 1012.9 |
| 20260904050100 | 16 | 0 | 0.0 | 0.0 | 0.00 | 0.43 | 0.00 | 100 | 1013.0 |
| 20260904044614 | 16 | 0 | 0.0 | 0.0 | 0.00 | 0.74 | 0.00 | 100 | 1013.0 |
| 20260904043109 | 16 | 0 | 0.0 | 0.0 | 0.00 | 0.74 | 0.00 | 100 | 1013.0 |
| 20260904041559 | 17 | 0 | 0.0 | 0.0 | 0.00 | 0.74 | 0.00 | 100 | 1013.1 |
| 20260904040059 | 17 | 0 | 0.0 | 0.0 | 0.00 | 0.74 | 0.00 | 100 | 1013.4 |
| 20260904034605 | 17 | 0 | 0.0 | 0.0 | 0.00 | 1.42 | 0.74 | 100 | 1013.4 |
| 20260904033101 | 17 | 0 | 0.0 | 0.0 | 0.00 | 1.42 | 0.74 | 100 | 1013.3 |
| 20260904031556 | 17 | 0 | 0.0 | 0.0 | 0.00 | 1.42 | 0.74 | 100 | 1013.5 |
| 20260904024604 | 17 | 0 | 0.0 | 0.0 | 0.00 | 1.42 | 0.74 | 100 | 1013.6 |
| 20260904023102 | 17 | 0 | 0.0 | 0.0 | 0.00 | 1.42 | 0.74 | 100 | 1013.7 |
| 20260904021613 | 17 | 0 | 0.0 | 0.0 | 0.00 | 1.42 | 0.74 | 100 | 1014.0 |
| 20260904020058 | 18 | 0 | 0.0 | 0.0 | 0.00 | 1.42 | 0.74 | 100 | 1013.9 |
| 20260904014607 | 18 | 0 | 0.0 | 0.0 | 0.00 | 1.45 | 0.74 | 100 | 1014.1 |
| 20260904013121 | 18 | 0 | 0.0 | 0.0 | 0.00 | 1.45 | 0.74 | 100 | 1014.1 |
| 20260904011647 | 18 | 0 | 0.0 | 0.0 | 0.00 | 1.45 | 0.74 | 100 | 1014.0 |
| 20260904010101 | 19 | 0 | 0.0 | 0.0 | 0.00 | 1.45 | 0.74 | 100 | 1014.0 |
| 20260904004559 | 19 | 0 | 0.0 | 0.0 | 0.00 | 1.47 | 0.74 | 100 | 1014.1 |
| 20260904003105 | 20 | 0 | 0.0 | 0.0 | 0.00 | 1.47 | 0.74 | 100 | 1013.9 |
| 20260904001652 | 20 | 0 | 0.0 | 0.0 | 0.00 | 1.47 | 0.74 | 100 | 1013.8 |
| 20260904000109 | 21 | 0 | 0.0 | 0.0 | 0.00 | 1.47 | 0.74 | 100 | 1013.8 |
| 20260903234558 | 21 | 0 | 0.0 | 1.6 | 0.00 | 1.52 | 0.74 | 100 | 1013.7 |
| 20260903233110 | 22 | 0 | 0.0 | 0.0 | 0.00 | 1.52 | 0.74 | 100 | 1013.3 |
| 20260903231604 | 22 | 0 | 0.0 | 0.0 | 0.00 | 1.52 | 0.74 | 100 | 1013.0 |
| 20260903230111 | 22 | 0 | 0.0 | 0.0 | 0.00 | 1.52 | 0.74 | 100 | 1013.1 |
| 20260903224619 | 23 | 0 | 0.0 | 0.0 | 0.00 | 1.57 | 0.74 | 100 | 1013.2 |
| 20260903223103 | 23 | 0 | 0.0 | 0.0 | 0.00 | 1.57 | 0.74 | 12 | 1013.1 |
| 20260903221604 | 24 | 0 | 0.0 | 0.0 | 0.00 | 1.57 | 0.74 | 27 | 1013.1 |
| 20260903220106 | 25 | 0 | 0.0 | 0.0 | 0.00 | 1.57 | 0.74 | 62 | 1012.8 |
| 20260903214608 | 25 | 0 | 0.0 | 3.2 | 0.00 | 1.60 | 0.74 | 70 | 1013.1 |
| 20260903213102 | 26 | 236 | 0.0 | 17.7 | 0.00 | 1.60 | 0.74 | 69 | 1012.9 |